Content
SEND FEEDBACK

Daily
Averages
Monthly
Summary
United States of America

EL PASO, TEXAS


Home > North America > United States > Texas
Elevation: 1194 meters     Latitude: 31 48N     Longitude: 106 24W

WEATHER
 
SELECT A DAY
Number of Records: 175,399;   Date Range: 1/1/95 - 11/25/14
 
SHARE

PRINT THIS DATA

[ ← Previous Day ]
WEATHER ALMANAC - 2 SEPTEMBER, 2013
[ Next Day → ]
[ °F ]   °C
Weather ElementAverageHighLow
Temperature29.2 °C34.4 °C (2:51 pm)23.3 °C (5:51 am)
Dewpoint11.7 °C13.9 °C (8:51 am)8.9 °C (1:51 am)
Humidity34.7 %45 % (5:51 am)22 % (4:51 pm)
Barometer1010.8 hPa1017.9 hPa (8:34 pm)1007.5 hPa (4:51 pm)
Wind Speed15.8 km/h38.9 km/h (6:26 pm)
Wind Gust46.3 km/h (6:26 pm)
Weather ElementAverage
Visibility16.1 km
Wind DirectionESE (116.4 °)

Weather ElementTotal
Precipitation---
Cooling Degree Days10.5 (Base 18.3)
Growing Degree Days18.8 (Base 10)
Averaged from 25 records on 2 September, 2013
WEATHER CONDITIONS BREAKOUT
WIND DIRECTION BREAKOUT
WEATHER BY HOUR - 2 SEPTEMBER, 2013
[ °F ]   °C
Local TimeTemperatureDewpointHumidityBarometerVisibilityWind DirectionWind SpeedGust SpeedPrecipitationEventsConditions
1:51 AM26.7 °C8.9 °C32 %1009.1 hPa16.1 kmNE (50°)9.3 km/hClear
2:51 AM26.7 °C9.4 °C34 %1009.1 hPa16.1 kmENE (70°)5.6 km/hClear
3:51 AM25.6 °C10.6 °C39 %1009.5 hPa16.1 kmNorth (350°)7.4 km/hClear
4:51 AM25 °C10 °C39 %1009.8 hPa16.1 kmNNE (20°)11.1 km/hClear
5:51 AM23.3 °C10.6 °C45 %1010.8 hPa16.1 kmNNW (340°)13 km/hClear
6:51 AM23.3 °C10.6 °C45 %1011.2 hPa16.1 kmNorth (10°)11.1 km/hPartly Cloudy
7:51 AM24.4 °C11.7 °C45 %1011.9 hPa16.1 kmNNW (340°)14.8 km/hScattered Clouds
8:51 AM27.2 °C13.9 °C44 %1011.9 hPa16.1 kmNNE (30°)20.4 km/hPartly Cloudy
9:51 AM28.3 °C13.9 °C41 %1012.5 hPa16.1 kmNE (40°)11.1 km/hClear
10:51 AM30.6 °C12.8 °C33 %1012.5 hPa16.1 kmEast (80°)14.8 km/hPartly Cloudy
11:51 AM32.2 °C12.2 °C29 %1011.5 hPa16.1 kmSE (140°)16.7 km/h29.6 km/hPartly Cloudy
12:51 PM33.3 °C11.7 °C27 %1010.8 hPa16.1 kmSE (140°)20.4 km/h37 km/hPartly Cloudy
1:51 PM33.9 °C11.1 °C25 %1010.2 hPa16.1 kmSE (130°)9.3 km/h25.9 km/hPartly Cloudy
2:51 PM34.4 °C10.6 °C23 %1008.8 hPa16.1 kmENE (70°)18.5 km/hScattered Clouds
3:51 PM34.4 °C10.6 °C23 %1008.1 hPa16.1 kmSE (130°)16.7 km/hScattered Clouds
4:51 PM34.4 °C10 °C22 %1007.5 hPa16.1 kmESE (120°)14.8 km/hScattered Clouds
5:51 PM34.4 °C10.6 °C23 %1007.5 hPa16.1 kmSE (130°)11.1 km/hScattered Clouds
6:26 PM33 °C11 °C26 %1015.9 hPa16.1 kmNE (40°)38.9 km/h46.3 km/hMostly Cloudy
6:51 PM30.6 °C13.3 °C35 %1008.5 hPa16.1 kmNE (40°)33.3 km/hMostly Cloudy
7:51 PM27.8 °C13.9 °C42 %1009.8 hPa16.1 kmENE (70°)27.8 km/h40.7 km/hThunderstormThunderstorm
8:34 PM28 °C13 °C39 %1017.9 hPa16.1 kmENE (70°)22.2 km/h33.3 km/hOvercast
8:51 PM28.3 °C13.3 °C39 %1010.5 hPa16.1 kmENE (70°)22.2 km/hOvercast
9:51 PM28.3 °C12.8 °C38 %1010.8 hPa16.1 kmENE (60°)7.4 km/h0 mmRainLight Rain
10:51 PM28.3 °C12.2 °C37 %1011.2 hPa16.1 kmNorth (350°)7.4 km/h0 mmOvercast
11:51 PM26.7 °C12.8 °C42 %1011.2 hPa16.1 kmNNE (20°)7.4 km/hMostly Cloudy
Hourly data recorded from KELP, located 0 kilometers away from El Paso, Texas







STORIES FROM OUR PARTNERS